Regional Weather Roundup
Issued by NWS

Home | Current Version | Previous Version | Graphics & Text | Print | Product List | Glossary On
Versions: 1 2 3 4 5 6 7 8 9 10 11 12 13 14 15 16 17 18 19 20 21 22 23 24 25 26 27 28 29 30 31 32 33 34 35 36 37 38 39 40 41 42 43 44 45 46 47 48 49 50
000
ASUS44 KMEG 200700
RWRTN
TENNESSEE HOURLY STATE WEATHER ROUNDUP
NATIONAL WEATHER SERVICE MEMPHIS TN
200 AM CDT MON OCT 20 2014

TNZ002-004-019-021-049-052-054-088>092-200800-
WEST TENNESSEE

CITY           SKY/WX    TMP DP  RH WIND       PRES   REMARKS
MEMPHIS INTL   FAIR      50  47  89 CALM      30.08F
NWS MEMPHIS      N/A     47 N/A N/A MISG        N/A
JACKSON        FAIR      44  42  93 CALM      30.08F
DYERSBURG      FAIR      48  37  66 CALM      30.09F
UNION CITY     CLEAR     45  45 100 CALM      30.06F
PARIS          CLEAR     43  41  93 CALM      30.07F
LEXINGTON      MOCLDY    45  45 100 CALM      30.07F
SAVANNAH       CLEAR     41  41 100 CALM      30.09F
$$

TNZ008-025-027-028-033-062-065-066-200800-
NORTH MIDDLE TENNESSEE

CITY           SKY/WX    TMP DP  RH WIND       PRES   REMARKS
NASHVILLE      FAIR      49  46  90 CALM      30.08F
CLARKSVILLE    FOG       44  43  96 CALM      30.07F VSB 1/4
COOKEVILLE     CLEAR     45  45 100 CALM      30.06F
CROSSVILLE     FAIR      43  41  93 SE5       30.09F
$$

TNZ061-075-076-078-094-096-097-200800-
SOUTH MIDDLE TENNESSEE

CITY           SKY/WX    TMP DP  RH WIND       PRES   REMARKS
WINCHESTER     CLEAR     43  43 100 CALM      30.07F
MCMINNVILLE    CLEAR     45  45 100 CALM      30.06F
SHELBYVILLE    CLEAR     46  45  93 CALM      30.08F
$$

TNZ017-018-042-046-047-200800-
NORTHEAST TENNESSEE

CITY           SKY/WX    TMP DP  RH WIND       PRES   REMARKS
TRI CITIES     FAIR      40  39  97 CALM      30.10F
ELIZABETHTON   SUNNY     39  37  93 CALM      30.10F
$$

TNZ012-013-036-069-073-074-200800-
CENTRAL EAST TENNESSEE

CITY           SKY/WX    TMP DP  RH WIND       PRES   REMARKS
KNOXVILLE      MOCLDY    47  44  90 CALM      30.09F
OAK RIDGE      FAIR      45  43  93 CALM      30.11F
GATLINBURG     SUNNY     43  43 100 CALM      30.09F
MORRISTOWN     SUNNY     45  43  93 CALM      30.10F
$$

TNZ083-085-099-200800-
SOUTHEAST TENNESSEE

CITY           SKY/WX    TMP DP  RH WIND       PRES   REMARKS
CHATTANOOGA    FAIR      47  46  97 CALM      30.10F
$$

SKY/WX REPORTED AS FAIR MEANS FEW OR NO CLOUDS BELOW
12 THOUSAND FEET.



USA.gov is the U.S. government's official web portal to all federal, state and local government web resources and services.